Regional Weather Roundup
Issued by NWS

Home | Current Version | Previous Version | Text Only | Print | Product List | Glossary Off
Versions: 1 2 3 4 5 6 7 8 9 10 11 12 13 14 15 16 17 18 19 20 21 22 23 24 25 26 27 28 29 30 31 32 33 34 35 36 37 38 39 40 41 42 43 44 45 46 47 48 49 50

000
ASUS43 KDTX 291701
RWRMI
MICHIGAN HOURLY REGIONAL WEATHER ROUNDUP
NATIONAL WEATHER SERVICE DETROIT/PONTIAC MI
100 PM EDT MON JUN 29 2015

NOTE: "FAIR" INDICATES FEW OR NO CLOUDS BELOW 12,000 FEET WITH NO
SIGNIFICANT WEATHER AND/OR OBSTRUCTION TO VISIBILITY.

MIZ047>049-052>055-059>063-066>070-074>076-081>083-291800-
SOUTHEAST LOWER MICHIGAN

CITY           SKY/WX    TMP DP  RH WIND       PRES   REMARKS
ADRIAN         CLOUDY    70  57  63 S14       29.89F
ALMA           PTSUNNY   76  56  48 S7        29.85F
ANN ARBOR      MOSUNNY   72  60  66 SW10      29.89R
BAD AXE        SUNNY     77  52  41 SE5       29.88S
CARO           SUNNY     78  57  47 SE8       29.86F
DETROIT CITY   MOSUNNY   76  58  53 S12       29.88S
DETROIT        PTSUNNY   74  58  57 S13       29.89S
FLINT          MOSUNNY   80  56  43 SE14      29.86F
GROSSE ILE       N/A     70  63  78 S12       29.89R
HILLSDALE      MOSUNNY   70  57  62 SE10G20   29.88F
HOWELL         MOSUNNY   75  59  58 S10       29.87S

CITY           SKY/WX    TMP DP  RH WIND       PRES   REMARKS
JACKSON        CLOUDY    71  59  65 S14       29.88R
LAMBERTVILLE   CLOUDY    70  57  65 S9        29.90S
LANSING        MOSUNNY   75  59  57 S9        29.86S
LAPEER         FAIR      76  54  44 S8        29.88S
MASON          CLOUDY    70  60  72 SE6       29.87S
MONROE         CLOUDY    70  58  65 S14       29.89S
MT. CLEMENS    PTSUNNY   75  64  69 E14       29.87F
PONTIAC        PTSUNNY   74  55  51 SE6       29.87S
PORT HOPE        N/A     68  62  81 E8        29.87S
PORT HURON     MOSUNNY   75  59  57 S6        29.89S
TRI CITIES     SUNNY     80  52  37 S8        29.86F
MIDLAND        FAIR      80  53  39 S10       29.84F
TROY           MOSUNNY   79  54  42 S9G18     29.89S
SAGINAW HB     SUNNY     77  54  44 S9        29.85F
$$
MIZ043>046-050>051-056>058-064>065-071>073-077>080-291800-
SOUTHWEST LOWER MICHIGAN

CITY           SKY/WX    TMP DP  RH WIND       PRES   REMARKS
BATTLE CREEK   CLOUDY    71  60  68 SE8       29.86S
BENTON HARBOR  CLOUDY    70  60  70 S8        29.83R
BIG RAPIDS     PTSUNNY   75  52  45 S6        29.84S
COLDWATER      CLOUDY    69  56  62 SE15G21   29.86S
FREMONT        FAIR      76  52  42 S5        29.83S
HOLLAND        CLOUDY    73  60  63 S10       29.84S
GRAND RAPIDS   CLOUDY    72  60  66 SE5       29.85R
IONIA          PTSUNNY   76  59  54 SE10      29.84S
KALAMAZOO      CLOUDY    72  58  61 VRB6      29.85S
LUDINGTON      SUNNY     73  63  69 W9        29.84S
MARSHALL       CLOUDY    71  60  67 S7        29.86S
MOUNT PLEASANT MOSUNNY   78  52  40 SE9       29.84S
MUSKEGON       LGT RAIN  68  61  78 W6        29.84R
SOUTH HAVEN    CLOUDY    71  60  66 SE7       29.83S
$$
MIZ016>042-291800-
NORTHERN LOWER MICHIGAN

CITY           SKY/WX    TMP DP  RH WIND       PRES   REMARKS
ALPENA         SUNNY     80  51  36 S7        29.84F
BEAVER ISLAND  SUNNY     73  48  41 SW8       29.82S
BELLAIRE       SUNNY     78  48  34 S5        29.82F
CADILLAC       MOSUNNY   77  54  43 SW8       29.85S
CHARLEVOIX     SUNNY     77  43  29 S5        29.85F
FRANKFORT      SUNNY     82  47  29 SW6       29.82S
GAYLORD        SUNNY     77  48  35 SW13      29.85F
GRAYLING       MOSUNNY   78  52  40 S8        29.85F
HARBOR SPRINGS SUNNY     76  50  40 SW3       29.83S
HOUGHTON LAKE  MOSUNNY   77  52  41 SW9       29.86S
MANISTEE       MOSUNNY   73  57  56 W10       29.83S
OSCODA         SUNNY     78  52  40 SE9       29.85F
PELLSTON       SUNNY     79  47  32 S10       29.82F
ROGERS CITY    SUNNY     75  52  44 NE7       29.84F
TRAVERSE CITY  MOSUNNY   80  50  34 VRB5      29.80F
$$
MIZ007>008-015-291800-
EASTERN UPPER MICHIGAN

CITY           SKY/WX    TMP DP  RH WIND       PRES   REMARKS
KINROSS        SUNNY     79  52  38 SW7       29.81S
MACKINAC ISLAN SUNNY     72  52  49 W6        29.82S
NEWBERRY       SUNNY     74  59  58 SW10      29.80S
S. S. MARIE    SUNNY     77  55  46 MISG      29.79F
MUNISING         N/A     79  57  46 S12       29.76S
$$
MIZ004>006-011>014-085-291800-
CENTRAL UPPER MICHIGAN

CITY           SKY/WX    TMP DP  RH WIND       PRES   REMARKS
MANISTIQUE     SUNNY     67  56  66 S10       29.81S
ESCANABA       SUNNY     72  57  60 S9        29.80R
MENOMINEE      MOSUNNY   73  57  56 S10       29.80S
SAWYER-GWINN   MOSUNNY   75  55  50 SW14      29.79S
$$
MIZ001>003-009>011-084-291800-
WESTERN UPPER MICHIGAN

CITY           SKY/WX    TMP DP  RH WIND       PRES   REMARKS
IRON MOUNTAIN  MOSUNNY   77  57  50 S9        29.78S
HOUGHTON       PTSUNNY   73  60  63 W10       29.76R
COPPER HARBOR    N/A     61  56  83 N3        29.75S
IRONWOOD       SUNNY     73  63  68 W7        29.74F
$$

ABBREVIATIONS USED IN REMARKS
   TC - TEMPERATURE IN CELSIUS
  WCI - WIND CHILL INDEX
   HX - HEAT INDEX
  VSB - VISIBILITY



USA.gov is the U.S. government's official web portal to all federal, state and local government web resources and services.